EST,Max TemperatureF,Mean TemperatureF,Min TemperatureF,Max Dew PointF,MeanDew PointF,Min DewpointF,Max Humidity, Mean Humidity, Min Humidity, Max Sea Level PressureIn, Mean Sea Level PressureIn, Min Sea Level PressureIn, Max VisibilityMiles, Mean VisibilityMiles, Min VisibilityMiles, Max Wind SpeedMPH, Mean Wind SpeedMPH, Max Gust SpeedMPH,PrecipitationIn, CloudCover, Events, WindDirDegrees
2012-11-1,77,64,50,61,56,50,100,80,50,30.07,30.03,29.96,10,10,7,18,5,23,0.00,2,,245
2012-11-2,77,64,51,59,52,46,100,73,36,30.12,30.06,30.03,10,8,0,8,2,,0.00,1,Fog,325
2012-11-3,78,63,48,61,55,46,100,77,42,30.16,30.11,30.07,10,10,7,8,1,,0.00,0,,347
2012-11-4,78,64,51,63,57,52,100,78,44,30.14,30.08,30.01,10,8,0,8,1,,0.00,0,Fog,168
2012-11-5,75,67,59,64,61,57,100,85,57,30.04,29.99,29.94,10,9,5,8,1,,0.00,0,,252
2012-11-6,77,68,60,63,60,55,100,82,50,29.96,29.90,29.84,10,10,5,15,3,20,0.00,3,,237
2012-11-7,68,59,50,61,49,45,100,74,46,30.02,29.93,29.87,10,10,7,21,8,24,0.00,1,,297
2012-11-8,64,55,46,46,42,37,87,66,37,30.17,30.09,30.00,10,10,10,18,6,23,0.00,1,,333
2012-11-9,71,58,44,52,48,41,94,73,46,30.25,30.20,30.15,10,10,10,15,6,20,0.00,1,,355
2012-11-10,75,65,55,55,53,50,94,71,44,30.30,30.25,30.21,10,10,10,15,5,18,0.00,7,,24
2012-11-11,78,66,55,61,58,52,100,77,44,30.29,30.24,30.21,10,10,10,13,4,20,0.00,4,,47
2012-11-12,80,68,57,64,61,55,100,82,54,30.24,30.20,30.15,10,9,5,10,3,16,0.00,2,,67
2012-11-13,78,69,60,68,63,61,100,86,57,30.18,30.13,30.09,10,8,4,14,2,20,0.00,2,Rain,12
2012-11-14,78,69,60,68,63,61,100,89,57,30.16,30.12,30.09,10,10,5,9,3,,0.00,4,Rain-Thunderstorm,4
2012-11-15,77,68,59,66,62,59,100,90,65,30.14,30.10,30.07,10,7,0,12,4,,0.00,5,Fog,338
2012-11-16,73,65,57,63,59,55,100,89,65,30.15,30.11,30.06,10,7,2,15,7,16,0.00,5,Thunderstorm,350
2012-11-17,78,69,60,63,60,59,100,84,51,30.14,30.10,30.06,10,9,5,14,7,20,0.00,3,Thunderstorm,17
2012-11-18,73,64,55,63,59,54,100,85,57,30.18,30.12,30.08,10,8,5,16,9,23,0.00,4,,354
2012-11-19,60,56,51,54,53,50,100,90,77,30.17,30.12,30.08,10,9,2,13,9,18,0.00,6,,334
2012-11-20,75,64,53,61,56,52,100,82,57,30.08,30.02,29.96,10,8,2,16,8,21,0.00,4,,332
2012-11-21,71,60,50,55,50,45,100,74,40,30.08,30.02,29.98,10,10,10,16,7,22,0.00,0,,335
2012-11-22,69,58,46,50,45,39,100,68,38,30.18,30.10,30.05,10,10,10,18,8,24,0.00,0,,335
2012-11-23,71,58,44,52,44,41,93,65,41,30.20,30.13,30.09,10,10,10,13,7,20,0.00,0,,329
2012-11-24,73,57,41,54,48,39,100,74,46,30.13,30.08,30.01,10,10,4,12,3,17,0.00,1,,295
2012-11-25,71,56,42,50,46,43,100,73,35,30.17,30.12,30.08,10,10,5,8,4,,0.00,0,,335
2012-11-26,77,62,46,63,55,46,100,83,47,30.23,30.18,30.14,10,8,5,9,1,,0.00,1,,109
2012-11-27,77,66,55,63,60,54,100,83,57,30.22,30.16,30.11,10,8,3,8,2,,0.00,3,Rain,142
2012-11-28,73,64,55,63,59,54,100,86,64,30.24,30.18,30.12,10,8,1,16,4,21,0.00,2,,353
2012-11-29,77,65,53,61,56,52,100,81,54,30.26,30.23,30.20,10,8,4,16,8,21,0.00,2,,16
2012-11-30,77,65,53,59,56,52,100,80,47,30.25,30.21,30.16,10,10,5,14,5,24,0.00,1,,41